Find Kineis-3E

NORAD ID: 61222 Int'l Des: 2024-172 Owner: KINEIS Country: F operational
LEOCIRCULARRETROGRADESSO

リアルタイム位置

3D地球を読み込み中...

Kineis-3Eについて

説明を読み込み中...

次回通過

Passes for default location (London). Set your location on the main map for personalized predictions.

高度履歴

Loading altitude history...

軌道要素

1 61222U 24172C 26119.52415855 .00002124 00000-0 34395-3 0 9999
2 61222 98.0401 209.9392 0000891 98.2401 261.8907 14.72285761 86193
Epoch: Apr 29, 2026 • Age: 8 hours

現在のステータス

高度 682.4 km
速度 7.51 km/s
衛星直下点 -79.27°S, 94.88°E
打ち上げ日 Sep 20, 2024
運用期間 1.6 years
タイプ other

技術仕様

分類 Payload
質量 28.00 kg
乾燥質量 28.00 kg
総質量 28.00 kg
長さ 0.40 m
直径 0.20 m
スパン 1.60 m
形状 Box+ 2 pan + ant
製造者 KINEIS
バスタイプ Cubesat 16U
フェーズステータス In Orbit
所有者/国 KINEIS/F

Most Searched